Regional Weather Roundup
Issued by NWS Albany, NY

Home | Current Version | Previous Version | Text Only | Print | Product List | Glossary On
Versions: 1 2 3 4 5 6 7 8 9 10 11 12 13 14 15 16 17 18 19 20 21 22 23 24 25 26 27 28 29 30 31 32 33 34 35 36 37 38 39 40 41 42 43 44 45 46 47 48 49 50
000
ASUS41 KALY 060810
RWRALY

NEW YORK STATE HOURLY WEATHER ROUNDUP
NATIONAL WEATHER SERVICE ALBANY NY
400 AM EDT FRI MAY 06 2016

NOTE: "FAIR" INDICATES FEW OR NO CLOUDS BELOW 12,000 FEET WITH NO
SIGNIFICANT WEATHER AND/OR NO OBSTRUCTIONS TO VISIBILITY.

NYZ032-033-038>043-046>054-057>066-NYZ062>081-082-084-060900-
EAST


CITY           SKY/WX    TMP DP  RH WIND       PRES   REMARKS
ALBANY         CLOUDY    53  43  68 N7        29.71S
GLENS FALLS    MOCLDY    49  38  65 N6        29.73R
POUGHKEEPSIE   CLOUDY    52  46  80 E3        29.69R
NEWBURGH       CLOUDY    52  46  82 E6        29.70S
MONTGOMERY     CLOUDY    52  47  83 CALM      29.69R
WHITE PLAINS   LGT RAIN  47  45  93 N7        29.68S FOG
ISLIP          LGT RAIN  47  44  90 N13       29.65F
NEW YORK CITY  RAIN      49  49 100 N9        29.66F
CENTRAL PARK   LGT RAIN  49  45  86 NE8       29.69F
$$

NYZ005>009-017-018-044>046-055-056-060900-
CENTRAL


CITY           SKY/WX    TMP DP  RH WIND       PRES   REMARKS
FULTON         CLOUDY    51  42  71 N6        29.78R
SYRACUSE       MOCLDY    46  42  86 N7        29.76R
ROME           CLOUDY    50  42  74 N3        29.76R
ELMIRA         CLOUDY    52  41  66 N10       29.74S
BINGHAMTON     CLOUDY    49  42  77 N7        29.72R
MONTICELLO     CLOUDY    48  45  87 NW5       29.70S
$$

NYZ026>034-041>043-087-060900-
NORTH


CITY           SKY/WX    TMP DP  RH WIND       PRES   REMARKS
WATERTOWN      CLEAR     41  38  89 E5        29.79R
FORT DRUM      NOT AVBL
MASSENA        CLEAR     45  36  70 NE7       29.82S
SARANAC LAKE   CLEAR     32  29  88 CALM      29.75S
PLATTSBURGH    CLEAR     45  38  76 N10       29.77S
$$

NYZ001>004-010>016-019>021-085-060900-
WEST


CITY           SKY/WX    TMP DP  RH WIND       PRES   REMARKS
NIAGARA FALLS  PTCLDY    41  37  86 NW3       29.82R
BUFFALO        PTCLDY    47  42  83 NW6       29.82R
DUNKIRK        PTCLDY    40  39  97 S6        29.83R
JAMESTOWN      PTCLDY    46  39  76 NW6       29.80S
WELLSVILLE     CLOUDY    45  39  79 NW7       29.79S
ROCHESTER      PTCLDY    47  42  83 N7        29.81S
PENN YAN       CLOUDY    49  41  74 NW7       29.78S
$$

             KEY
       WCI = WIND CHILL INDEX
       VSB = VISIBILITY
       HX  = HEAT INDEX
$$



USA.gov is the U.S. government's official web portal to all federal, state and local government web resources and services.